#timestamp,LO_Frequency,Hit 
1502694015.7,286046996.5,N
1502694035.6,286046996.0,N
1502694055.4,286046995.6,N
1502694075.2,286046998.3,N
1502694095.1,286046999.0,N
1502694096.0,286046999.0,N
1502694115.8,286046999.2,N
1502694135.6,286046999.0,N
1502694155.5,286046997.6,N
1502694175.3,286046999.3,N
1502694195.1,286046995.9,N
1502694215.9,286046994.7,N
1502694235.7,286046994.0,N
1502694255.5,286046996.5,N
1502694275.4,286046994.2,N
1502694295.2,286046995.2,N
1502694315.0,286046996.9,N
1502694315.9,286046996.9,N
1502694335.7,286046997.6,N
1502694355.6,286046993.5,N
1502694375.4,286046993.5,N
1502694395.2,286046996.2,N
1502694415.1,286046996.4,N
1502694416.0,286046996.4,N
1502694435.8,286046996.7,N
1502694455.6,286046995.1,N
1502694475.5,286046997.9,N
1502694495.3,286046994.4,N
1502694515.1,286046996.0,N
1502694535.9,286046995.7,N
1502694555.7,286046993.4,P
1502694575.5,286046997.7,N
1502694595.4,286046999.3,N
1502694615.2,286046996.0,N
1502694635.0,286046995.7,N
1502694635.9,286046995.7,N
1502694655.8,286047001.1,N
1502694675.6,286047000.7,N
1502694695.4,286047000.8,N
1502694715.3,286047000.6,N
1502694735.1,286047002.2,N
1502694736.0,286047002.2,N
1502694755.8,286047000.4,N
1502694775.7,286047001.2,N
1502694795.5,286046999.1,N
1502694815.3,286046998.5,N
1502694835.1,286047001.1,N
1502694855.9,286046997.7,N
1502694875.7,286046997.3,N
1502694895.5,286046998.3,N
1502694915.4,286046998.8,N
1502694935.8,286046999.7,N
1502694955.7,286047001.6,N
1502694975.5,286047003.9,N
1502694995.3,286047004.8,N
1502695015.2,286047004.6,N
1502695035.9,286047004.0,N
1502695055.7,286047003.6,N
1502695075.6,286047001.6,N
1502695095.4,286046999.9,N
1502695115.2,286047000.8,N
1502695135.1,286047000.5,N
1502695136.0,286047000.5,N
1502695155.8,286046999.6,N
1502695175.6,286046999.3,N
1502695195.5,286046995.6,N
1502695215.3,286046998.0,N
1502695235.1,286046997.0,N
1502695255.8,286046997.3,N
1502695275.7,286046993.8,N
1502695295.5,286046997.8,N
1502695315.3,286046998.6,N
1502695335.2,286046995.3,N
1502695355.0,286046995.9,N
1502695355.9,286046995.9,N
1502695375.7,286046999.1,N
1502695395.6,286047000.1,N
1502695415.4,286047002.6,N
1502695435.2,286046999.8,N
1502695455.1,286046996.7,N
1502695456.0,286046996.7,N
1502695475.8,286046999.6,N
1502695495.6,286046996.5,N
1502695515.5,286046993.3,N
1502695535.3,286046993.6,N
1502695555.1,286046996.0,N
1502695575.9,286046994.1,N
1502695595.7,286046993.5,N
1502695615.5,286046996.3,N
1502695635.4,286046994.6,N
1502695655.2,286046991.8,P
1502695675.0,286046997.8,N
1502695675.9,286046997.8,N
1502695695.8,286047001.0,N
1502695715.6,286047002.7,N
1502695735.4,286047001.0,N
1502695755.3,286047000.8,N
1502695775.1,286046996.8,N
1502695776.0,286046996.8,N
1502695795.8,286047002.1,N
1502695815.7,286047002.0,N
1502695835.5,286047002.4,N
1502695855.3,286047004.0,N
1502695875.1,286047004.8,N
1502695895.9,286047002.4,N
1502695915.7,286047003.6,N
1502695935.5,286047004.9,N
1502695955.4,286047005.0,N
1502695975.2,286047004.9,N
1502695995.0,286047004.5,N
1502695995.9,286047004.5,N
1502696015.8,286047005.9,N
1502696035.6,286047006.2,N
1502696055.4,286047006.9,N
1502696075.3,286047006.0,N
1502696095.1,286047004.9,N
1502696096.0,286047004.9,N
1502696115.8,286047005.0,N
1502696135.7,286047005.6,N
1502696155.5,286047001.1,N
1502696175.3,286047002.0,N
1502696195.2,286047005.9,N
1502696215.9,286047002.3,N
1502696235.7,286047001.4,N
1502696255.5,286047003.5,N
1502696275.4,286047003.7,N
1502696295.2,286047002.2,N
1502696315.0,286047002.3,N
1502696315.9,286047002.3,N
1502696335.8,286047004.8,N
1502696355.3,286047002.1,N
1502696375.2,286047001.0,N
1502696395.9,286046999.6,N
1502696415.7,286047002.2,N
1502696435.6,286047003.4,N
1502696455.5,286047006.0,P
1502696475.3,286047002.7,N
1502696495.1,286046996.6,N
1502696515.9,286046998.4,N
1502696535.9,286046998.4,N
1502696555.7,286046997.7,N
1502696575.5,286046997.0,N
1502696595.3,286046998.2,N
1502696615.2,286047000.8,N
1502696635.0,286047000.0,N
1502696635.9,286047000.0,N
1502696655.7,286047002.5,N
1502696675.6,286047002.3,N
1502696695.4,286047001.0,N
1502696715.2,286046999.2,N
1502696735.1,286047000.6,N
1502696736.0,286047000.6,N
1502696755.8,286046999.1,N
1502696775.6,286046998.8,N
1502696795.5,286046999.6,N
1502696815.3,286046995.6,N
1502696835.2,286046991.7,P
1502696855.9,286046994.6,N
1502696875.7,286046992.7,N
1502696895.5,286046992.2,N
1502696915.4,286046994.7,N
1502696935.2,286046994.3,N
1502696955.0,286046994.3,N
1502696955.9,286046994.3,N
1502696975.8,286046992.0,P
1502696995.6,286046996.6,N
1502697015.5,286046997.8,N
1502697035.3,286046999.2,N
1502697055.1,286046997.3,N
1502697075.9,286046999.6,N
1502697095.7,286046996.7,N
1502697115.5,286047000.3,N
1502697135.4,286046998.2,N
1502697155.2,286046998.4,N
1502697175.0,286047000.7,N
1502697175.9,286047000.7,N
1502697195.7,286047001.1,N
1502697215.6,286046996.7,N
1502697235.4,286046998.8,N
1502697255.2,286047001.1,N
1502697275.1,286046999.0,N
1502697276.0,286046999.0,N
1502697295.8,286046999.1,N
1502697315.6,286047002.2,N
1502697335.5,286047002.8,N
1502697355.3,286047001.5,N
1502697375.1,286047003.6,N
1502697395.9,286046998.5,N
1502697415.7,286046999.5,N
1502697435.5,286046995.2,N
1502697455.4,286046995.9,N
1502697475.2,286046998.0,N
1502697495.0,286046997.0,N
1502697495.9,286046997.0,N
1502697515.8,286046997.9,N
1502697535.6,286046997.8,N
1502697555.4,286046995.9,N
1502697575.3,286047000.6,N
1502697595.1,286047000.1,N
1502697596.0,286047000.1,N
